This demonstration page uses our WeatherBlox Daily Observations layout. Learn more.

Left ArrowRight Arrow

Hourly Observations for August 21, 2017

Temp ( °F °C ) Dew Point ( °F °C ) Humidity (%) Winds ( mph kmh ) Pressure ( in mb ) Visibility ( mi km ) Precip ( " mm )
12:51 am 00:51 Clear 68 20 59 15 73 73 NNW 7 11 29.91 1013 10 16.0934 N/A
1:51 am 01:51 Mostly Cloudy with Light Rain 69 20.6 59 15 70 70 NE 3 6 29.9 1013 10 16.0934 N/A
2:51 am 02:51 Clear 66 18.9 58 14.4 75 75 N N/A 29.91 1013 10 16.0934 N/A
3:51 am 03:51 Clear 65 18.3 58 14.4 78 78 NW 3 6 29.91 1013 10 16.0934 N/A
4:51 am 04:51 Clear 63 17.2 58 14.4 84 84 ENE 5 7 29.91 1013 10 16.0934 N/A
5:51 am 05:51 Sunny 65 18.3 59 15 81 81 SSE 7 11 29.91 1013 10 16.0934 N/A
6:51 am 06:51 Sunny 69 20.6 60 15.6 73 73 E 3 6 29.93 1014 10 16.0934 N/A
7:51 am 07:51 Sunny 75 23.9 58 14.4 55 55 N N/A 29.93 1014 10 16.0934 N/A
8:51 am 08:51 Sunny 82 27.8 59 15 46 46 VRB 7 11 29.93 1014 10 16.0934 N/A
9:51 am 09:51 Sunny 83 28.3 58 14.4 43 43 N N/A 29.93 1014 10 16.0934 N/A
10:51 am 10:51 Sunny 82 27.8 58 14.4 44 44 SW 6 9 29.93 1014 10 16.0934 N/A
11:51 am 11:51 Sunny 85 29.4 58 14.4 40 40 VRB 6 9 29.92 1013 10 16.0934 N/A
12:51 pm 12:51 Sunny 89 31.7 57 13.9 34 34 WNW 9 15 29.91 1013 10 16.0934 N/A
1:51 pm 13:51 Sunny 90 32.2 54 12.2 29 29 N N/A 29.89 1012 10 16.0934 N/A
2:51 pm 14:51 Sunny 91 32.8 54 12.2 28 28 N N/A 29.87 1011 10 16.0934 N/A
3:51 pm 15:51 Sunny 93 33.9 51 10.6 24 24 W 8 13 29.85 1011 10 16.0934 N/A
4:51 pm 16:51 Sunny 92 33.3 49 9.4 23 23 VRB 3 6 29.84 1011 10 16.0934 N/A
5:51 pm 17:51 Sunny 92 33.3 49 9.4 23 23 VRB 3 6 29.83 1010 10 16.0934 N/A
6:51 pm 18:51 Sunny 88 31.1 49 9.4 26 26 W 5 7 29.83 1010 10 16.0934 N/A
7:51 pm 19:51 Clear 82 27.8 52 11.1 35 35 SW 3 6 29.85 1011 10 16.0934 N/A
8:51 pm 20:51 Clear 79 26.1 51 10.6 38 38 N 3 6 29.86 1011 10 16.0934 N/A
9:51 pm 21:51 Clear 78 25.6 51 10.6 39 39 N N/A 29.87 1012 10 16.0934 N/A
10:51 pm 22:51 Clear 76 24.4 51 10.6 42 42 N 5 7 29.89 1012 10 16.0934 N/A
11:51 pm 23:51 Clear 76 24.4 51 10.6 42 42 SE 3 6 29.89 1012 10 16.0934 N/A

Powered by AerisWeather